Time,TemperatureF,DewpointF,PressureIn,WindDirection,WindDirectionDegrees,WindSpeedMPH,WindSpeedGustMPH,Humidity,HourlyPrecipIn,Conditions,Clouds,dailyrainin,SoftwareType,DateUTC
2013-02-26 00:14:00,54.0,52.0,29.37,South,187,1.0,3.0,92,0.05,,,0.00,weatherlink.com 1.10,2013-02-26 06:14:00,
2013-02-26 00:29:00,53.5,51.0,29.37,SSE,155,2.0,5.0,91,0.03,,,0.00,weatherlink.com 1.10,2013-02-26 06:29:00,
2013-02-26 00:44:00,53.4,51.0,29.37,SSE,163,1.0,4.0,90,0.00,,,0.00,weatherlink.com 1.10,2013-02-26 06:44:00,
2013-02-26 00:59:00,53.3,51.0,29.37,WSW,238,2.0,5.0,90,0.00,,,0.00,weatherlink.com 1.10,2013-02-26 06:59:00,
2013-02-26 01:14:00,53.3,51.0,29.38,ESE,122,3.0,5.0,90,0.00,,,0.00,weatherlink.com 1.10,2013-02-26 07:14:00,
2013-02-26 01:29:00,53.0,51.0,29.39,SW,232,2.0,6.0,91,0.00,,,0.00,weatherlink.com 1.10,2013-02-26 07:29:00,
2013-02-26 01:44:00,52.5,50.0,29.39,SSW,198,1.0,3.0,92,0.00,,,0.00,weatherlink.com 1.10,2013-02-26 07:44:00,
2013-02-26 01:59:00,52.0,50.0,29.39,SSW,211,1.0,3.0,92,0.00,,,0.00,weatherlink.com 1.10,2013-02-26 07:59:00,
2013-02-26 02:14:00,51.4,49.0,29.38,SSE,163,1.0,2.0,92,0.00,,,0.00,weatherlink.com 1.10,2013-02-26 08:14:00,
2013-02-26 02:29:00,50.9,49.0,29.39,SW,231,2.0,2.0,92,0.00,,,0.00,weatherlink.com 1.10,2013-02-26 08:29:00,
2013-02-26 02:44:00,50.9,48.0,29.39,SW,221,1.0,6.0,90,0.00,,,0.00,weatherlink.com 1.10,2013-02-26 08:44:00,
2013-02-26 02:59:00,50.6,48.0,29.39,SW,236,2.0,6.0,90,0.00,,,0.00,weatherlink.com 1.10,2013-02-26 08:59:00,
2013-02-26 03:14:00,50.2,47.0,29.40,SW,229,4.0,5.0,89,0.00,,,0.00,weatherlink.com 1.10,2013-02-26 09:14:00,
2013-02-26 03:29:00,50.1,47.0,29.40,SW,231,2.0,5.0,89,0.00,,,0.00,weatherlink.com 1.10,2013-02-26 09:29:00,
2013-02-26 03:44:00,49.6,46.0,29.41,SSW,193,2.0,10.0,88,0.00,,,0.00,weatherlink.com 1.10,2013-02-26 09:44:00,
2013-02-26 03:59:00,49.2,46.0,29.41,SW,226,3.0,6.0,88,0.00,,,0.00,weatherlink.com 1.10,2013-02-26 09:59:00,
2013-02-26 04:14:00,48.9,46.0,29.41,WSW,239,2.0,4.0,88,0.00,,,0.00,weatherlink.com 1.10,2013-02-26 10:14:00,
2013-02-26 04:29:00,48.5,45.0,29.41,SW,220,0.0,3.0,88,0.00,,,0.00,weatherlink.com 1.10,2013-02-26 10:29:00,
2013-02-26 04:45:00,48.3,45.0,29.41,WSW,238,1.0,4.0,89,0.00,,,0.00,weatherlink.com 1.10,2013-02-26 10:45:00,
2013-02-26 05:00:00,48.3,45.0,29.42,SSW,210,3.0,6.0,88,0.00,,,0.00,weatherlink.com 1.10,2013-02-26 11:00:00,
2013-02-26 05:15:00,47.6,43.0,29.43,WSW,242,2.0,9.0,83,0.00,,,0.00,weatherlink.com 1.10,2013-02-26 11:15:00,
2013-02-26 05:30:00,47.0,42.0,29.43,SSW,194,1.0,7.0,82,0.00,,,0.00,weatherlink.com 1.10,2013-02-26 11:30:00,
2013-02-26 05:45:00,46.5,41.0,29.44,WSW,248,4.0,6.0,82,0.00,,,0.00,weatherlink.com 1.10,2013-02-26 11:45:00,
2013-02-26 06:00:00,46.2,41.0,29.44,SW,220,3.0,7.0,82,0.00,,,0.00,weatherlink.com 1.10,2013-02-26 12:00:00,
2013-02-26 06:15:00,45.8,41.0,29.45,WSW,249,3.0,9.0,82,0.00,,,0.00,weatherlink.com 1.10,2013-02-26 12:15:00,
2013-02-26 06:30:00,45.4,40.0,29.45,SW,222,3.0,6.0,81,0.00,,,0.00,weatherlink.com 1.10,2013-02-26 12:30:00,
2013-02-26 06:45:00,45.2,40.0,29.45,WSW,239,4.0,6.0,82,0.00,,,0.00,weatherlink.com 1.10,2013-02-26 12:45:00,
2013-02-26 07:00:00,45.0,40.0,29.46,SW,219,1.0,5.0,81,0.00,,,0.00,weatherlink.com 1.10,2013-02-26 13:00:00,
2013-02-26 07:15:00,44.8,40.0,29.46,SW,219,5.0,8.0,82,0.00,,,0.00,weatherlink.com 1.10,2013-02-26 13:15:00,
2013-02-26 07:30:00,44.8,39.0,29.47,WNW,283,3.0,10.0,81,0.00,,,0.00,weatherlink.com 1.10,2013-02-26 13:30:00,
2013-02-26 07:45:00,44.8,40.0,29.48,SSW,207,1.0,5.0,82,0.00,,,0.00,weatherlink.com 1.10,2013-02-26 13:45:00,
2013-02-26 08:00:00,44.4,39.0,29.49,WSW,241,2.0,7.0,81,0.00,,,0.00,weatherlink.com 1.10,2013-02-26 14:00:00,
2013-02-26 08:15:00,44.3,39.0,29.50,WSW,257,2.0,8.0,81,0.00,,,0.00,weatherlink.com 1.10,2013-02-26 14:15:00,
2013-02-26 08:30:00,44.1,38.0,29.50,South,190,4.0,8.0,80,0.00,,,0.00,weatherlink.com 1.10,2013-02-26 14:30:00,
2013-02-26 08:45:00,44.3,38.0,29.51,WSW,252,3.0,11.0,78,0.00,,,0.00,weatherlink.com 1.10,2013-02-26 14:45:00,
2013-02-26 09:00:00,44.5,38.0,29.51,SW,219,2.0,9.0,78,0.00,,,0.00,weatherlink.com 1.10,2013-02-26 15:00:00,
2013-02-26 09:15:00,44.4,38.0,29.52,WSW,253,1.0,10.0,78,0.00,,,0.00,weatherlink.com 1.10,2013-02-26 15:15:00,
2013-02-26 09:30:00,44.4,38.0,29.52,WSW,249,4.0,10.0,78,0.00,,,0.00,weatherlink.com 1.10,2013-02-26 15:30:00,
2013-02-26 09:45:00,45.1,39.0,29.52,SW,228,3.0,7.0,78,0.00,,,0.00,weatherlink.com 1.10,2013-02-26 15:45:00,
2013-02-26 10:00:00,45.1,39.0,29.52,SSW,203,5.0,8.0,78,0.00,,,0.00,weatherlink.com 1.10,2013-02-26 16:00:00,
2013-02-26 10:15:00,44.6,38.0,29.53,SSW,210,5.0,10.0,78,0.00,,,0.00,weatherlink.com 1.10,2013-02-26 16:15:00,
2013-02-26 10:30:00,44.0,38.0,29.54,SW,224,5.0,8.0,80,0.00,,,0.00,weatherlink.com 1.10,2013-02-26 16:30:00,
2013-02-26 10:45:00,43.7,38.0,29.54,SW,224,4.0,10.0,81,0.00,,,0.00,weatherlink.com 1.10,2013-02-26 16:45:00,
2013-02-26 11:00:00,43.5,38.0,29.54,SSW,193,3.0,9.0,81,0.00,,,0.00,weatherlink.com 1.10,2013-02-26 17:00:00,
2013-02-26 11:15:00,44.0,38.0,29.54,SW,214,4.0,9.0,79,0.00,,,0.00,weatherlink.com 1.10,2013-02-26 17:15:00,
2013-02-26 11:30:00,43.9,37.0,29.54,SW,228,3.0,8.0,78,0.00,,,0.00,weatherlink.com 1.10,2013-02-26 17:30:00,
2013-02-26 11:46:00,43.3,37.0,29.55,SW,229,6.0,12.0,77,0.00,,,0.00,weatherlink.com 1.10,2013-02-26 17:46:00,
2013-02-26 12:16:00,42.3,37.0,29.57,West,264,5.0,10.0,82,0.00,,,0.00,weatherlink.com 1.10,2013-02-26 18:16:00,
2013-02-26 12:31:00,42.1,37.0,29.57,West,262,2.0,9.0,82,0.00,,,0.00,weatherlink.com 1.10,2013-02-26 18:31:00,
2013-02-26 12:46:00,42.0,37.0,29.56,West,270,2.0,10.0,82,0.00,,,0.00,weatherlink.com 1.10,2013-02-26 18:46:00,
2013-02-26 13:01:00,42.2,37.0,29.56,West,267,2.0,10.0,81,0.00,,,0.00,weatherlink.com 1.10,2013-02-26 19:01:00,
2013-02-26 13:16:00,42.3,37.0,29.57,SW,235,5.0,10.0,80,0.00,,,0.00,weatherlink.com 1.10,2013-02-26 19:16:00,
2013-02-26 13:31:00,42.5,36.0,29.57,WSW,256,2.0,10.0,79,0.00,,,0.00,weatherlink.com 1.10,2013-02-26 19:31:00,
2013-02-26 13:46:00,42.6,37.0,29.59,West,267,5.0,11.0,79,0.00,,,0.00,weatherlink.com 1.10,2013-02-26 19:46:00,
2013-02-26 14:01:00,42.8,36.0,29.59,SSW,212,3.0,7.0,77,0.00,,,0.00,weatherlink.com 1.10,2013-02-26 20:01:00,
2013-02-26 14:16:00,42.9,36.0,29.60,SSW,203,1.0,12.0,77,0.00,,,0.00,weatherlink.com 1.10,2013-02-26 20:16:00,
2013-02-26 14:31:00,42.6,37.0,29.59,SSW,203,3.0,10.0,80,0.00,,,0.00,weatherlink.com 1.10,2013-02-26 20:31:00,
2013-02-26 14:46:00,43.3,36.0,29.60,WSW,250,4.0,10.0,76,0.00,,,0.00,weatherlink.com 1.10,2013-02-26 20:46:00,
2013-02-26 15:01:00,43.6,35.0,29.60,WSW,252,5.0,14.0,73,0.00,,,0.00,weatherlink.com 1.10,2013-02-26 21:01:00,
2013-02-26 15:16:00,43.7,35.0,29.61,SW,214,4.0,13.0,72,0.00,,,0.00,weatherlink.com 1.10,2013-02-26 21:16:00,
2013-02-26 15:31:00,44.0,35.0,29.61,WSW,252,2.0,11.0,70,0.00,,,0.00,weatherlink.com 1.10,2013-02-26 21:31:00,
2013-02-26 15:46:00,43.9,35.0,29.62,ESE,110,5.0,12.0,72,0.00,,,0.00,weatherlink.com 1.10,2013-02-26 21:46:00,
2013-02-26 16:01:00,44.0,35.0,29.63,SW,229,3.0,11.0,71,0.00,,,0.00,weatherlink.com 1.10,2013-02-26 22:01:00,
2013-02-26 16:16:00,44.0,35.0,29.64,WSW,240,6.0,17.0,70,0.00,,,0.00,weatherlink.com 1.10,2013-02-26 22:16:00,
2013-02-26 16:31:00,43.8,35.0,29.64,SSW,193,5.0,14.0,70,0.00,,,0.00,weatherlink.com 1.10,2013-02-26 22:31:00,
2013-02-26 16:46:00,43.5,34.0,29.65,WSW,237,7.0,11.0,70,0.00,,,0.00,weatherlink.com 1.10,2013-02-26 22:46:00,
2013-02-26 17:01:00,43.3,34.0,29.66,West,263,5.0,15.0,70,0.00,,,0.00,weatherlink.com 1.10,2013-02-26 23:01:00,
2013-02-26 17:16:00,43.1,34.0,29.67,West,266,7.0,15.0,71,0.00,,,0.00,weatherlink.com 1.10,2013-02-26 23:16:00,
2013-02-26 17:31:00,42.9,34.0,29.68,West,267,5.0,12.0,70,0.00,,,0.00,weatherlink.com 1.10,2013-02-26 23:31:00,
2013-02-26 17:46:00,42.8,35.0,29.69,SSW,207,5.0,15.0,73,0.00,,,0.00,weatherlink.com 1.10,2013-02-26 23:46:00,
2013-02-26 18:01:00,42.5,34.0,29.70,West,259,4.0,13.0,73,0.00,,,0.00,weatherlink.com 1.10,2013-02-27 00:01:00,
2013-02-26 18:16:00,42.4,34.0,29.72,West,277,5.0,11.0,73,0.00,,,0.00,weatherlink.com 1.10,2013-02-27 00:16:00,
2013-02-26 18:31:00,42.2,34.0,29.73,SE,126,4.0,13.0,74,0.00,,,0.00,weatherlink.com 1.10,2013-02-27 00:31:00,
2013-02-26 18:46:00,42.1,35.0,29.74,WSW,249,4.0,8.0,75,0.00,,,0.00,weatherlink.com 1.10,2013-02-27 00:46:00,
2013-02-26 19:01:00,42.0,35.0,29.75,SW,219,4.0,10.0,75,0.00,,,0.00,weatherlink.com 1.10,2013-02-27 01:01:00,
2013-02-26 19:17:00,41.9,35.0,29.75,West,260,5.0,10.0,75,0.00,,,0.00,weatherlink.com 1.10,2013-02-27 01:17:00,
2013-02-26 19:32:00,41.9,35.0,29.76,West,264,6.0,10.0,75,0.00,,,0.00,weatherlink.com 1.10,2013-02-27 01:32:00,
2013-02-26 19:47:00,41.8,35.0,29.77,WSW,257,3.0,10.0,76,0.00,,,0.00,weatherlink.com 1.10,2013-02-27 01:47:00,
2013-02-26 20:02:00,41.7,34.0,29.77,WNW,300,5.0,13.0,75,0.00,,,0.00,weatherlink.com 1.10,2013-02-27 02:02:00,
2013-02-26 20:17:00,41.7,34.0,29.78,WNW,293,3.0,15.0,75,0.00,,,0.00,weatherlink.com 1.10,2013-02-27 02:17:00,
2013-02-26 20:32:00,41.6,34.0,29.79,West,266,3.0,8.0,75,0.00,,,0.00,weatherlink.com 1.10,2013-02-27 02:32:00,
2013-02-26 20:47:00,41.6,34.0,29.80,SW,221,4.0,9.0,75,0.00,,,0.00,weatherlink.com 1.10,2013-02-27 02:47:00,
2013-02-26 21:02:00,41.6,35.0,29.81,WSW,255,4.0,12.0,76,0.00,,,0.00,weatherlink.com 1.10,2013-02-27 03:02:00,
2013-02-26 21:17:00,41.5,34.0,29.81,NE,51,4.0,12.0,76,0.00,,,0.00,weatherlink.com 1.10,2013-02-27 03:17:00,
2013-02-26 21:32:00,41.5,34.0,29.82,WSW,240,3.0,8.0,75,0.00,,,0.00,weatherlink.com 1.10,2013-02-27 03:32:00,
2013-02-26 21:47:00,41.5,34.0,29.82,SW,235,4.0,13.0,75,0.00,,,0.00,weatherlink.com 1.10,2013-02-27 03:47:00,
2013-02-26 22:02:00,41.5,34.0,29.82,WSW,257,2.0,5.0,75,0.00,,,0.00,weatherlink.com 1.10,2013-02-27 04:02:00,
2013-02-26 22:17:00,41.4,34.0,29.83,SW,219,7.0,8.0,75,0.00,,,0.00,weatherlink.com 1.10,2013-02-27 04:17:00,
2013-02-26 22:47:00,41.3,34.0,29.84,SSW,211,3.0,7.0,76,0.00,,,0.00,weatherlink.com 1.10,2013-02-27 04:47:00,
2013-02-26 23:02:00,41.3,34.0,29.84,WNW,295,2.0,7.0,76,0.00,,,0.00,weatherlink.com 1.10,2013-02-27 05:02:00,
2013-02-26 23:17:00,41.3,34.0,29.85,WSW,238,7.0,9.0,76,0.00,,,0.00,weatherlink.com 1.10,2013-02-27 05:17:00,
2013-02-26 23:32:00,41.2,34.0,29.85,West,262,3.0,7.0,76,0.00,,,0.00,weatherlink.com 1.10,2013-02-27 05:32:00,
2013-02-26 23:47:00,41.2,34.0,29.85,West,260,2.0,8.0,76,0.00,,,0.00,weatherlink.com 1.10,2013-02-27 05:47:00,